23/04/2011,00:00:08,   0.0,  1.4,  222,+13.4,  83.7,    0.3,  +11.7,  +13.1,  +12.2,+1100.00,1D
23/04/2011,00:00:34,   0.0,  1.5,  197,+13.4,  83.7,    0.0,  +11.7,  +13.0,  +12.2,+1100.00,24
23/04/2011,00:00:52,   0.0,  1.3,  195,+13.4,  83.8,    0.3,  +11.7,  +13.1,  +12.2,+1100.00,25
23/04/2011,00:01:11,   0.0,  2.1,  176,+13.4,  83.8,    0.1,  +11.7,  +13.0,  +12.3,+1100.00,1D
23/04/2011,00:01:29,   0.0,  2.1,  187,+13.4,  83.8,    0.3,  +11.7,  +13.0,  +12.2,+1100.00,29
23/04/2011,00:01:54,   0.0,  1.9,  202,+13.4,  83.8,    0.4,  +11.7,  +13.1,  +12.2,+1100.00,24
23/04/2011,00:02:12,   0.0,  1.2,  201,+13.4,  83.8,    0.2,  +11.7,  +13.1,  +12.2,+1100.00,15
23/04/2011,00:02:30,   0.0,  1.2,  186,+13.4,  83.8,    0.3,  +11.5,  +13.1,  +12.2,+1100.00,20
23/04/2011,00:02:48,   0.0,  1.9,  191,+13.4,  83.8,    0.3,  +11.6,  +13.1,  +12.2,+1100.00,2D
23/04/2011,00:03:14,   0.0,  2.8,  190,+13.4,  83.7,    0.3,  +11.6,  +13.1,  +12.2,+1100.00,25
23/04/2011,00:03:32,   0.0,  1.6,  192,+13.4,  83.7,    0.3,  +11.7,  +13.1,  +12.2,+1100.00,25
23/04/2011,00:03:50,   0.0,  2.1,  193,+13.4,  83.7,    0.4,  +11.7,  +13.0,  +12.3,+1100.00,23
23/04/2011,00:04:15,   0.0,  1.4,  173,+13.4,  83.8,    0.4,  +11.7,  +13.1,  +12.2,+1100.00,26
23/04/2011,00:04:33,   0.0,  1.5,  179,+13.4,  83.8,    0.4,  +11.7,  +13.0,  +12.2,+1100.00,2C
23/04/2011,00:04:51,   0.0,  1.3,  189,+13.3,  83.7,    0.1,  +11.7,  +13.1,  +12.2,+1100.00,27
23/04/2011,00:05:09,   0.0,  2.0,  194,+13.3,  83.7,    0.3,  +11.6,  +13.1,  +12.2,+1100.00,26
23/04/2011,00:05:35,   0.0,  1.5,  212,+13.4,  83.8,    0.3,  +11.6,  +13.1,  +12.2,+1100.00,22
23/04/2011,00:05:53,   0.0,  1.4,  198,+13.3,  83.8,    0.3,  +11.7,  +13.0,  +12.2,+1100.00,2D
23/04/2011,00:06:11,   0.0,  1.9,  186,+13.4,  83.7,    0.1,  +11.5,  +13.2,  +12.1,+1100.00,27
23/04/2011,00:06:29,   0.0,  1.4,  201,+13.4,  83.7,    0.3,  +11.6,  +13.1,  +12.2,+1100.00,22
23/04/2011,00:06:55,   0.0,  1.5,  197,+13.4,  83.7,    0.2,  +11.7,  +13.1,  +12.1,+1100.00,2F
23/04/2011,00:07:13,   0.0,  1.9,  195,+13.4,  83.7,    0.3,  +11.6,  +13.1,  +12.1,+1100.00,2C
23/04/2011,00:07:31,   0.0,  2.3,  188,+13.4,  83.7,    0.2,  +11.7,  +13.1,  +12.2,+1100.00,2A
23/04/2011,00:07:49,   0.0,  2.8,  180,+13.3,  83.7,    0.4,  +11.6,  +13.1,  +12.1,+1100.00,2F
23/04/2011,00:08:15,   0.0,  1.5,  169,+13.3,  83.7,    0.2,  +11.7,  +13.0,  +12.1,+1100.00,2A
23/04/2011,00:08:33,   0.0,  1.6,  210,+13.3,  83.6,    0.1,  +11.6,  +13.1,  +12.2,+1100.00,1D
23/04/2011,00:08:51,   0.0,  1.2,  203,+13.3,  83.6,    0.4,  +11.7,  +13.0,  +12.2,+1100.00,1E
23/04/2011,00:09:09,   0.0,  1.3,  203,+13.3,  83.6,    0.4,  +11.6,  +13.1,  +12.2,+1100.00,23
23/04/2011,00:09:35,   0.0,  1.3,  243,+13.3,  83.6,    0.2,  +11.7,  +13.0,  +12.1,+1100.00,23
23/04/2011,00:09:53,   0.0,  1.1,  231,+13.3,  83.5,    0.2,  +11.7,  +13.1,  +12.2,+1100.00,1F
23/04/2011,00:10:11,   0.0,  1.4,  229,+13.3,  83.6,    0.4,  +11.7,  +13.1,  +12.2,+1100.00,1E
23/04/2011,00:10:29,   0.0,  1.2,  226,+13.3,  83.6,    0.4,  +11.7,  +13.1,  +12.2,+1100.00,22
23/04/2011,00:10:55,   0.0,  0.9,  226,+13.3,  83.6,    0.2,  +11.7,  +13.1,  +12.1,+1100.00,24
23/04/2011,00:11:13,   0.0,  0.7,  221,+13.3,  83.6,    0.2,  +11.6,  +13.1,  +12.1,+1100.00,17
23/04/2011,00:11:31,   0.0,  0.0,  221,+13.3,  83.6,    0.3,  +11.7,  +13.1,  +12.1,+1100.00,12
23/04/2011,00:11:49,   0.0,  0.0,  220,+13.3,  83.6,    0.2,  +11.6,  +13.1,  +12.1,+1100.00,18
23/04/2011,00:12:15,   0.0,  0.0,  219,+13.3,  83.6,    0.3,  +11.7,  +13.1,  +12.1,+1100.00,1C
23/04/2011,00:12:33,   0.0,  0.3,  213,+13.3,  83.7,    0.3,  +11.6,  +13.1,  +12.1,+1100.00,19
23/04/2011,00:12:51,   0.0,  1.6,  198,+13.3,  83.7,    0.3,  +11.6,  +13.1,  +12.1,+1100.00,29
23/04/2011,00:13:09,   0.0,  0.7,  204,+13.3,  83.7,    0.3,  +11.7,  +13.1,  +12.1,+1100.00,22
23/04/2011,00:13:35,   0.0,  1.6,  195,+13.3,  83.7,    0.2,  +11.6,  +13.1,  +12.0,+1100.00,27
23/04/2011,00:13:53,   0.0,  1.8,  193,+13.3,  83.8,    0.2,  +11.7,  +13.1,  +12.1,+1100.00,2A
23/04/2011,00:14:11,   0.0,  1.6,  193,+13.3,  83.8,    0.4,  +11.8,  +13.0,  +12.1,+1100.00,25
23/04/2011,00:14:29,   0.0,  1.7,  199,+13.3,  83.9,    0.4,  +11.6,  +13.1,  +12.0,+1100.00,34
23/04/2011,00:14:55,   0.0,  2.2,  192,+13.3,  83.9,    0.2,  +11.7,  +13.1,  +12.1,+1100.00,28
23/04/2011,00:15:13,   0.0,  1.4,  190,+13.3,  83.9,    0.2,  +11.8,  +13.0,  +12.1,+1100.00,22
23/04/2011,00:15:31,   0.0,  0.0,  200,+13.2,  83.9,    0.4,  +11.7,  +13.1,  +12.1,+1100.00,16
23/04/2011,00:15:49,   0.0,  0.0,  202,+13.3,  83.9,    0.1,  +11.6,  +13.1,  +12.0,+1100.00,1D
23/04/2011,00:16:15,   0.0,  1.1,  199,+13.3,  83.8,    0.2,  +11.7,  +13.1,  +12.1,+1100.00,2A
23/04/2011,00:16:33,   0.0,  1.4,  186,+13.2,  83.9,    0.3,  +11.5,  +13.2,  +12.0,+1100.00,28
23/04/2011,00:16:51,   0.0,  1.0,  206,+13.2,  84.0,    0.2,  +11.7,  +13.1,  +12.0,+1100.00,15
23/04/2011,00:17:09,   0.0,  1.3,  185,+13.2,  83.9,    0.4,  +11.7,  +13.1,  +12.0,+1100.00,2C
23/04/2011,00:17:35,   0.0,  1.4,  219,+13.2,  84.0,    0.2,  +11.7,  +13.1,  +12.0,+1100.00,20
23/04/2011,00:17:53,   0.0,  1.0,  217,+13.2,  84.0,    0.3,  +11.7,  +13.0,  +12.1,+1100.00,1B
23/04/2011,00:18:11,   0.0,  1.0,  218,+13.2,  84.0,    0.3,  +11.6,  +13.1,  +12.0,+1100.00,16
23/04/2011,00:18:29,   0.0,  1.8,  215,+13.2,  84.1,    0.4,  +11.7,  +13.0,  +12.1,+1100.00,27
23/04/2011,00:18:55,   0.0,  0.8,  226,+13.2,  84.2,    0.3,  +11.6,  +13.1,  +12.0,+1100.00,26
23/04/2011,00:19:13,   0.0,  1.9,  231,+13.2,  84.2,    0.0,  +11.6,  +13.1,  +12.0,+1100.00,1C
23/04/2011,00:19:31,   0.0,  1.3,  200,+13.2,  84.3,    0.4,  +11.7,  +13.1,  +12.0,+1100.00,18
23/04/2011,00:19:49,   0.0,  1.4,  194,+13.2,  84.3,    0.4,  +11.6,  +13.1,  +12.0,+1100.00,2D
23/04/2011,00:20:15,   0.0,  1.2,  198,+13.2,  84.4,    0.3,  +11.7,  +13.1,  +12.0,+1100.00,21
23/04/2011,00:20:33,   0.0,  0.9,  197,+13.2,  84.4,    0.0,  +11.6,  +13.1,  +12.0,+1100.00,22
23/04/2011,00:20:51,   0.0,  1.4,  201,+13.2,  84.4,    0.2,  +11.6,  +13.1,  +11.9,+1100.00,1A
23/04/2011,00:21:09,   0.0,  1.5,  199,+13.1,  84.4,    0.3,  +11.7,  +13.1,  +12.0,+1100.00,28
23/04/2011,00:21:35,   0.0,  1.0,  199,+13.1,  84.4,    0.2,  +11.6,  +13.1,  +11.9,+1100.00,28
23/04/2011,00:21:53,   0.0,  0.9,  183,+13.1,  84.4,    0.1,  +11.6,  +13.1,  +12.0,+1100.00,20
23/04/2011,00:22:11,   0.0,  0.0,  183,+13.1,  84.4,    0.3,  +11.6,  +13.1,  +11.9,+1100.00,1C
23/04/2011,00:22:29,   0.0,  1.5,  185,+13.2,  84.4,    0.3,  +11.8,  +13.0,  +12.0,+1100.00,27
23/04/2011,00:22:55,   0.0,  0.5,  185,+13.1,  84.3,    0.2,  +11.6,  +13.1,  +11.9,+1100.00,29
23/04/2011,00:23:13,   0.0,  0.8,  185,+13.2,  84.3,    0.0,  +11.8,  +13.0,  +12.0,+1100.00,1F
23/04/2011,00:23:31,   0.0,  0.4,  185,+13.2,  84.3,    0.3,  +11.6,  +13.1,  +11.9,+1100.00,25
23/04/2011,00:23:49,   0.0,  0.0,  185,+13.2,  84.2,    0.3,  +11.6,  +13.1,  +11.9,+1100.00,29
23/04/2011,00:24:15,   0.0,  0.0,  233,+13.1,  84.1,    0.2,  +11.7,  +13.1,  +11.9,+1100.00,1B
23/04/2011,00:24:33,   0.0,  1.9,  241,+13.1,  84.0,    0.0,  +11.7,  +13.0,  +12.0,+1100.00,18
23/04/2011,00:24:51,   0.0,  1.6,  226,+13.1,  84.2,    0.4,  +11.6,  +13.1,  +11.9,+1100.00,26
23/04/2011,00:25:09,   0.0,  1.4,  224,+13.1,  84.3,    0.2,  +11.8,  +13.0,  +12.0,+1100.00,1E
23/04/2011,00:25:35,   0.0,  0.9,  225,+13.1,  84.3,    0.3,  +11.7,  +13.1,  +11.9,+1100.00,2B
23/04/2011,00:25:53,   0.0,  0.7,  225,+13.1,  84.3,    0.0,  +11.5,  +13.1,  +11.9,+1100.00,24
23/04/2011,00:26:11,   0.0,  0.9,  217,+13.1,  84.3,    0.2,  +11.7,  +13.1,  +12.0,+1100.00,1E
23/04/2011,00:26:29,   0.0,  0.7,  215,+13.1,  84.2,    0.4,  +11.6,  +13.1,  +11.9,+1100.00,2B
23/04/2011,00:26:55,   0.0,  0.0,  221,+13.1,  84.1,    0.2,  +11.7,  +13.1,  +11.9,+1100.00,1E
23/04/2011,00:27:13,   0.0,  0.0,  244,+13.1,  84.1,    0.0,  +11.7,  +13.1,  +12.0,+1100.00,14
23/04/2011,00:27:31,   0.0,  0.0,  241,+13.1,  84.1,    0.4,  +11.6,  +13.2,  +11.9,+1100.00,1D
23/04/2011,00:27:49,   0.0,  0.0,  212,+13.1,  84.2,    0.4,  +11.7,  +13.1,  +12.0,+1100.00,1D
23/04/2011,00:28:15,   0.0,  0.0,  217,+13.1,  84.3,    0.1,  +11.7,  +13.1,  +11.9,+1100.00,22
23/04/2011,00:28:33,   0.0,  0.0,  217,+13.1,  84.3,    0.3,  +11.7,  +13.0,  +11.9,+1100.00,23
23/04/2011,00:28:51,   0.0,  0.0,  230,+13.1,  84.5,    0.1,  +11.7,  +13.1,  +11.9,+1100.00,1F
23/04/2011,00:29:09,   0.0,  1.7,  214,+13.1,  84.5,    0.3,  +11.6,  +13.2,  +11.9,+1100.00,2F
23/04/2011,00:29:35,   0.0,  1.6,  220,+13.0,  84.6,    0.2,  +11.7,  +13.1,  +11.9,+1100.00,29
23/04/2011,00:29:53,   0.0,  1.8,  215,+13.0,  84.6,    0.1,  +11.7,  +13.0,  +11.9,+1100.00,2D
23/04/2011,00:30:11,   0.0,  1.1,  210,+13.0,  84.5,    0.3,  +11.6,  +13.1,  +11.9,+1100.00,14
23/04/2011,00:30:29,   0.0,  1.1,  215,+13.1,  84.5,    0.2,  +11.7,  +13.1,  +11.9,+1100.00,23
23/04/2011,00:30:55,   0.0,  0.4,  212,+13.0,  84.5,    0.3,  +11.8,  +13.0,  +11.9,+1100.00,21
23/04/2011,00:31:13,   0.0,  0.0,  209,+13.0,  84.5,    0.2,  +11.6,  +13.1,  +11.9,+1100.00,1C
23/04/2011,00:31:31,   0.0,  0.0,  208,+13.0,  84.5,    0.4,  +11.8,  +13.0,  +11.9,+1100.00,1E
23/04/2011,00:31:49,   0.0,  0.0,  211,+13.0,  84.5,    0.4,  +11.7,  +13.1,  +11.8,+1100.00,20
23/04/2011,00:32:15,   0.0,  0.0,  214,+13.0,  84.5,    0.3,  +11.7,  +13.1,  +11.8,+1100.00,1C
23/04/2011,00:32:33,   0.0,  0.0,  218,+13.0,  84.6,    0.3,  +11.7,  +13.1,  +11.9,+1100.00,22
23/04/2011,00:32:51,   0.0,  0.0,  218,+13.1,  84.5,    0.4,  +11.7,  +13.1,  +11.9,+1100.00,23
23/04/2011,00:33:09,   0.0,  0.0,  217,+13.1,  84.4,    0.2,  +11.7,  +13.1,  +11.9,+1100.00,23
23/04/2011,00:33:35,   0.0,  1.6,  232,+13.0,  84.5,    0.2,  +11.7,  +13.1,  +11.9,+1100.00,26
23/04/2011,00:33:53,   0.0,  1.3,  197,+13.1,  84.5,    0.3,  +11.6,  +13.1,  +11.8,+1100.00,2D
23/04/2011,00:34:11,   0.0,  1.5,  231,+13.0,  84.6,    0.4,  +11.7,  +13.1,  +11.9,+1100.00,22
23/04/2011,00:34:29,   0.0,  1.5,  231,+13.0,  84.6,    0.4,  +11.7,  +13.1,  +11.9,+1100.00,2B
23/04/2011,00:34:55,   0.0,  2.4,  230,+13.0,  84.7,    0.2,  +11.8,  +13.0,  +11.9,+1100.00,28
23/04/2011,00:35:13,   0.0,  1.9,  230,+13.0,  84.7,    0.2,  +11.6,  +13.2,  +11.9,+1100.00,27
23/04/2011,00:35:31,   0.0,  1.7,  204,+13.0,  84.8,    0.3,  +11.7,  +13.1,  +11.9,+1100.00,28
23/04/2011,00:35:49,   0.0,  1.3,  210,+13.0,  84.8,    0.2,  +11.7,  +13.1,  +11.9,+1100.00,29
23/04/2011,00:36:15,   0.0,  2.3,  213,+13.0,  84.8,    0.2,  +11.8,  +13.0,  +11.9,+1100.00,27
23/04/2011,00:36:33,   0.0,  2.0,  241,+13.0,  84.8,    0.1,  +11.7,  +13.0,  +11.9,+1100.00,23
23/04/2011,00:36:51,   0.0,  2.2,  215,+13.0,  84.9,    0.4,  +11.7,  +13.1,  +11.9,+1100.00,2B
23/04/2011,00:37:09,   0.0,  1.3,  187,+13.0,  84.9,    0.3,  +11.6,  +13.2,  +11.9,+1100.00,36
23/04/2011,00:37:35,   0.0,  1.6,  231,+13.0,  85.0,    0.2,  +11.7,  +13.1,  +11.9,+1100.00,25
23/04/2011,00:37:53,   0.0,  1.6,  212,+13.0,  84.9,    0.3,  +11.7,  +13.1,  +11.9,+1100.00,2D
23/04/2011,00:38:11,   0.0,  1.3,  223,+13.0,  84.9,    0.1,  +11.7,  +13.1,  +11.9,+1100.00,25
23/04/2011,00:38:29,   0.0,  1.2,  217,+13.0,  84.9,    0.2,  +11.7,  +13.1,  +12.0,+1100.00,29
23/04/2011,00:38:55,   0.0,  2.1,  243,+13.0,  84.9,    0.2,  +11.7,  +13.1,  +11.9,+1100.00,2F
23/04/2011,00:39:13,   0.0,  1.5,  263,+13.0,  84.9,    0.3,  +11.7,  +13.1,  +12.0,+1100.00,28
23/04/2011,00:39:31,   0.0,  1.6,  196,+13.0,  84.9,    0.3,  +11.6,  +13.1,  +12.0,+1100.00,2D
23/04/2011,00:39:49,   0.0,  1.9,  240,+13.0,  84.8,    0.2,  +11.7,  +13.1,  +12.0,+1100.00,2E
23/04/2011,00:40:15,   0.0,  1.8,  224,+13.0,  84.8,    0.2,  +11.7,  +13.1,  +11.9,+1100.00,28
23/04/2011,00:40:33,   0.0,  2.6,  238,+13.0,  84.8,    0.2,  +11.7,  +13.1,  +12.0,+1100.00,24
23/04/2011,00:40:51,   0.0,  2.2,  215,+13.0,  84.7,    0.4,  +11.7,  +13.1,  +12.0,+1100.00,1C
23/04/2011,00:41:09,   0.0,  1.9,  213,+13.0,  84.7,    0.2,  +11.6,  +13.1,  +12.0,+1100.00,21
23/04/2011,00:41:35,   0.0,  0.4,  220,+13.0,  84.8,    0.2,  +11.6,  +13.2,  +12.0,+1100.00,1A
23/04/2011,00:41:53,   0.0,  1.1,  218,+13.0,  84.8,    0.3,  +11.6,  +13.1,  +12.0,+1100.00,1F
23/04/2011,00:42:11,   0.0,  1.6,  228,+13.1,  84.8,    0.4,  +11.6,  +13.1,  +12.0,+1100.00,22
23/04/2011,00:42:29,   0.0,  2.4,  243,+13.0,  84.7,    0.2,  +11.7,  +13.1,  +12.1,+1100.00,25
23/04/2011,00:42:55,   0.0,  1.3,  191,+13.0,  84.7,    0.2,  +11.7,  +13.1,  +12.1,+1100.00,24
23/04/2011,00:43:13,   0.0,  1.8,  196,+13.0,  84.7,    0.0,  +11.7,  +13.0,  +12.1,+1100.00,26
23/04/2011,00:43:31,   0.0,  2.3,  202,+13.0,  84.7,    0.4,  +11.6,  +13.1,  +12.0,+1100.00,19
23/04/2011,00:43:49,   0.0,  1.7,  182,+13.0,  84.7,    0.2,  +11.7,  +13.1,  +12.1,+1100.00,2C
23/04/2011,00:44:15,   0.0,  2.2,  192,+13.0,  84.7,    0.2,  +11.7,  +13.1,  +12.1,+1100.00,23
23/04/2011,00:44:33,   0.0,  1.9,  193,+13.0,  84.6,    0.3,  +11.6,  +13.2,  +12.1,+1100.00,2A
23/04/2011,00:44:51,   0.0,  2.2,  223,+13.0,  84.6,    0.4,  +11.7,  +13.1,  +12.1,+1100.00,1F
23/04/2011,00:45:09,   0.0,  2.0,  203,+13.0,  84.6,    0.3,  +11.6,  +13.2,  +12.1,+1100.00,1E
23/04/2011,00:45:35,   0.0,  1.8,  220,+13.0,  84.6,    0.2,  +11.6,  +13.2,  +12.1,+1100.00,22
23/04/2011,00:45:53,   0.0,  1.4,  193,+13.0,  84.6,    0.3,  +11.6,  +13.2,  +12.1,+1100.00,28
23/04/2011,00:46:11,   0.0,  1.8,  203,+13.0,  84.6,    0.1,  +11.5,  +13.2,  +12.1,+1100.00,1C
23/04/2011,00:46:29,   0.0,  1.5,  204,+13.1,  84.6,    0.5,  +11.8,  +13.1,  +12.2,+1100.00,2B
23/04/2011,00:46:55,   0.0,  1.6,  200,+13.0,  84.5,    0.2,  +11.8,  +13.0,  +12.2,+1100.00,21
23/04/2011,00:47:13,   0.0,  1.9,  210,+13.0,  84.6,    0.3,  +11.7,  +13.1,  +12.2,+1100.00,22
23/04/2011,00:47:31,   0.0,  2.1,  195,+13.0,  84.5,    0.4,  +11.8,  +13.0,  +12.2,+1100.00,27
23/04/2011,00:47:49,   0.0,  2.3,  210,+13.0,  84.5,    0.4,  +11.6,  +13.1,  +12.2,+1100.00,25
23/04/2011,00:48:15,   0.0,  1.4,  201,+13.0,  84.5,    0.4,  +11.8,  +13.0,  +12.2,+1100.00,20
23/04/2011,00:48:33,   0.0,  2.1,  212,+13.0,  84.5,    0.2,  +11.6,  +13.1,  +12.2,+1100.00,1D
23/04/2011,00:48:51,   0.0,  2.0,  200,+13.0,  84.5,    0.2,  +11.7,  +13.1,  +12.2,+1100.00,1A
23/04/2011,00:49:09,   0.0,  1.6,  211,+13.0,  84.5,    0.2,  +11.7,  +13.0,  +12.2,+1100.00,24
23/04/2011,00:49:35,   0.0,  1.3,  204,+13.0,  84.4,    0.3,  +11.7,  +13.1,  +12.2,+1100.00,23
23/04/2011,00:49:53,   0.0,  1.1,  241,+13.0,  84.4,    0.4,  +11.5,  +13.2,  +12.1,+1100.00,21
23/04/2011,00:50:11,   0.0,  1.3,  197,+13.0,  84.4,    0.2,  +11.7,  +13.1,  +12.2,+1100.00,1F
23/04/2011,00:50:29,   0.0,  1.5,  190,+13.0,  84.4,    0.1,  +11.7,  +13.1,  +12.2,+1100.00,22
23/04/2011,00:50:55,   0.0,  2.9,  231,+13.1,  84.4,    0.3,  +11.7,  +13.1,  +12.2,+1100.00,25
23/04/2011,00:51:13,   0.0,  2.2,  176,+13.0,  84.3,    0.2,  +11.7,  +13.0,  +12.2,+1100.00,1D
23/04/2011,00:51:31,   0.0,  1.6,  199,+13.0,  84.3,    0.4,  +11.6,  +13.1,  +12.2,+1100.00,27
23/04/2011,00:51:49,   0.0,  2.0,  230,+13.0,  84.3,    0.2,  +11.6,  +13.1,  +12.2,+1100.00,1B
23/04/2011,00:52:15,   0.0,  2.3,  205,+13.0,  84.2,    0.2,  +11.6,  +13.2,  +12.2,+1100.00,1A
23/04/2011,00:52:33,   0.0,  2.6,  182,+13.0,  84.3,    0.0,  +11.7,  +13.1,  +12.2,+1100.00,20
23/04/2011,00:52:51,   0.0,  2.7,  203,+13.0,  84.2,    0.4,  +11.6,  +13.1,  +12.2,+1100.00,1D
23/04/2011,00:53:09,   0.0,  2.2,  245,+13.0,  84.2,    0.3,  +11.6,  +13.2,  +12.2,+1100.00,22
23/04/2011,00:53:35,   0.0,  1.4,  193,+13.0,  84.2,    0.4,  +11.6,  +13.2,  +12.1,+1100.00,24
23/04/2011,00:53:53,   0.0,  1.1,  193,+13.0,  84.1,    0.2,  +11.7,  +13.0,  +12.2,+1100.00,1E
23/04/2011,00:54:11,   0.0,  1.5,  179,+13.0,  84.2,    0.2,  +11.7,  +13.1,  +12.2,+1100.00,23
23/04/2011,00:54:29,   0.0,  1.8,  180,+13.0,  84.2,    0.4,  +11.7,  +13.1,  +12.2,+1100.00,29
23/04/2011,00:54:55,   0.0,  1.2,  182,+13.0,  84.3,    0.3,  +11.5,  +13.2,  +12.2,+1100.00,23
23/04/2011,00:55:13,   0.0,  1.1,  188,+13.0,  84.2,    0.0,  +11.6,  +13.1,  +12.2,+1100.00,1F
23/04/2011,00:55:31,   0.0,  1.1,  209,+13.0,  84.3,    0.4,  +11.7,  +13.1,  +12.2,+1100.00,1F
23/04/2011,00:55:49,   0.0,  1.6,  245,+13.0,  84.3,    0.4,  +11.6,  +13.1,  +12.2,+1100.00,2C
23/04/2011,00:56:15,   0.0,  1.6,  206,+13.0,  84.3,    0.2,  +11.7,  +13.0,  +12.2,+1100.00,21
23/04/2011,00:56:33,   0.0,  1.3,  210,+13.0,  84.3,    0.3,  +11.7,  +13.1,  +12.2,+1100.00,1B
23/04/2011,00:56:51,   0.0,  1.3,  172,+13.0,  84.4,    0.4,  +11.7,  +13.1,  +12.2,+1100.00,24
23/04/2011,00:57:09,   0.0,  2.2,  191,+13.0,  84.4,    0.3,  +11.6,  +13.2,  +12.1,+1100.00,27
23/04/2011,00:57:35,   0.0,  1.7,  212,+13.0,  84.4,    0.4,  +11.7,  +13.1,  +12.1,+1100.00,25
23/04/2011,00:57:53,   0.0,  1.8,  217,+13.0,  84.3,    0.3,  +11.6,  +13.1,  +12.2,+1100.00,29
23/04/2011,00:58:11,   0.0,  1.8,  214,+13.0,  84.3,    0.4,  +11.8,  +13.0,  +12.2,+1100.00,23
23/04/2011,00:58:29,   0.0,  1.3,  206,+13.0,  84.3,    0.1,  +11.6,  +13.1,  +12.2,+1100.00,24
23/04/2011,00:58:55,   0.0,  1.7,  200,+13.0,  84.3,    0.3,  +11.7,  +13.1,  +12.2,+1100.00,24
23/04/2011,00:59:13,   0.0,  1.8,  204,+13.0,  84.3,    0.3,  +11.8,  +13.0,  +12.3,+1100.00,25
23/04/2011,00:59:31,   0.0,  1.2,  216,+13.0,  84.3,    0.2,  +11.7,  +13.1,  +12.2,+1100.00,20
23/04/2011,00:59:49,   0.0,  1.5,  215,+13.0,  84.3,    0.4,  +11.6,  +13.1,  +12.2,+1100.00,2C
23/04/2011,01:00:15,   0.0,  1.4,  214,+13.0,  84.3,    0.4,  +11.7,  +13.1,  +12.2,+1100.00,17
23/04/2011,01:00:33,   0.0,  1.2,  210,+13.0,  84.3,    0.4,  +11.6,  +13.2,  +12.2,+1100.00,11
23/04/2011,01:00:51,   0.0,  1.7,  202,+13.0,  84.3,    0.1,  +11.7,  +13.1,  +12.2,+1100.00,14
23/04/2011,01:01:09,   0.0,  0.9,  202,+13.0,  84.3,    0.2,  +11.7,  +13.1,  +12.2,+1100.00,1A
23/04/2011,01:01:35,   0.0,  1.3,  206,+13.0,  84.3,    0.2,  +11.7,  +13.1,  +12.2,+1100.00,18
23/04/2011,01:01:53,   0.0,  2.0,  211,+13.0,  84.3,    0.0,  +11.6,  +13.1,  +12.2,+1100.00,0F
23/04/2011,01:02:11,   0.0,  1.2,  145,+13.0,  84.2,    0.3,  +11.8,  +13.0,  +12.2,+1100.00,14
23/04/2011,01:02:29,   0.0,  1.8,  205,+13.0,  84.2,    0.4,  +11.6,  +13.1,  +12.2,+1100.00,20
23/04/2011,01:02:55,   0.0,  2.3,  183,+13.0,  84.3,    0.1,  +11.7,  +13.1,  +12.2,+1100.00,1F
23/04/2011,01:03:13,   0.0,  1.3,  214,+13.0,  84.2,    0.2,  +11.6,  +13.1,  +12.2,+1100.00,13
23/04/2011,01:03:31,   0.0,  1.7,  208,+13.0,  84.2,    0.1,  +11.7,  +13.1,  +12.2,+1100.00,1A
23/04/2011,01:03:49,   0.0,  2.4,  198,+13.0,  84.1,    0.4,  +11.6,  +13.1,  +12.2,+1100.00,2A
23/04/2011,01:04:15,   0.0,  1.6,  219,+13.0,  84.1,    0.4,  +11.6,  +13.1,  +12.1,+1100.00,1E
23/04/2011,01:04:33,   0.0,  1.4,  255,+13.0,  84.1,    0.3,  +11.7,  +13.0,  +12.2,+1100.00,1C
23/04/2011,01:04:51,   0.0,  2.6,  219,+13.0,  84.1,    0.4,  +11.7,  +13.1,  +12.2,+1100.00,21
23/04/2011,01:05:09,   0.0,  2.4,  220,+13.0,  84.2,    0.3,  +11.7,  +13.1,  +12.1,+1100.00,1A
23/04/2011,01:05:35,   0.0,  1.7,  202,+13.0,  84.2,    0.3,  +11.7,  +13.1,  +12.1,+1100.00,1B
23/04/2011,01:05:53,   0.0,  2.2,  188,+12.9,  84.2,    0.3,  +11.6,  +13.1,  +12.2,+1100.00,2C
23/04/2011,01:06:11,   0.0,  2.1,  226,+12.9,  84.2,    0.3,  +11.8,  +13.0,  +12.2,+1100.00,20
23/04/2011,01:06:29,   0.0,  1.9,  188,+12.9,  84.2,    0.2,  +11.7,  +13.1,  +12.1,+1100.00,35
23/04/2011,01:06:55,   0.0,  0.8,  192,+12.9,  84.3,    0.2,  +11.7,  +13.1,  +12.1,+1100.00,2E
23/04/2011,01:07:13,   0.0,  2.7,  213,+12.9,  84.2,    0.3,  +11.6,  +13.1,  +12.1,+1100.00,23
23/04/2011,01:07:31,   0.0,  2.0,  238,+12.9,  84.2,    0.4,  +11.6,  +13.1,  +12.1,+1100.00,24
23/04/2011,01:07:49,   0.0,  1.3,  270,+13.0,  84.2,    0.5,  +11.5,  +13.2,  +12.0,+1100.00,23
23/04/2011,01:08:15,   0.0,  2.3,  214,+12.9,  84.2,    0.3,  +11.7,  +13.1,  +12.1,+1100.00,24
23/04/2011,01:08:33,   0.0,  1.8,  213,+12.9,  84.2,    0.0,  +11.7,  +13.1,  +12.1,+1100.00,24
23/04/2011,01:08:51,   0.0,  2.6,  204,+12.9,  84.2,    0.1,  +11.7,  +13.1,  +12.1,+1100.00,24
23/04/2011,01:09:09,   0.0,  2.1,  198,+12.9,  84.2,    0.4,  +11.6,  +13.2,  +12.0,+1100.00,31
23/04/2011,01:09:35,   0.0,  3.5,  207,+12.9,  84.1,    0.2,  +11.7,  +13.1,  +12.1,+1100.00,2A
23/04/2011,01:09:53,   0.0,  2.8,  213,+12.9,  84.1,    0.2,  +11.6,  +13.1,  +12.1,+1100.00,28
23/04/2011,01:10:11,   0.0,  1.8,  211,+12.9,  84.1,    0.3,  +11.7,  +13.1,  +12.1,+1100.00,19
23/04/2011,01:10:29,   0.0,  2.0,  268,+12.9,  84.1,    0.2,  +11.7,  +13.1,  +12.0,+1100.00,25
23/04/2011,01:10:55,   0.0,  1.2,  268,+12.9,  84.2,    0.2,  +11.7,  +13.1,  +12.0,+1100.00,26
23/04/2011,01:11:13,   0.0,  1.4,  268,+12.9,  84.2,    0.3,  +11.7,  +13.1,  +12.0,+1100.00,24
23/04/2011,01:11:31,   0.0,  1.8,  199,+12.9,  84.2,    0.4,  +11.5,  +13.2,  +11.9,+1100.00,33
23/04/2011,01:11:49,   0.0,  2.7,  211,+12.9,  84.3,    0.2,  +11.7,  +13.1,  +12.0,+1100.00,25
23/04/2011,01:12:15,   0.0,  1.4,  213,+12.9,  84.3,    0.2,  +11.6,  +13.2,  +12.0,+1100.00,1D
23/04/2011,01:12:33,   0.0,  0.9,  210,+12.9,  84.3,    0.3,  +11.8,  +13.0,  +12.0,+1100.00,1F
23/04/2011,01:12:51,   0.0,  2.7,  224,+12.9,  84.2,    0.2,  +11.5,  +13.2,  +11.9,+1100.00,29
23/04/2011,01:13:09,   0.0,  1.9,  158,+12.9,  84.2,    0.4,  +11.8,  +13.0,  +12.0,+1100.00,2F
23/04/2011,01:13:35,   0.0,  2.0,  209,+12.8,  84.2,    0.1,  +11.7,  +13.1,  +12.0,+1100.00,1F
23/04/2011,01:13:53,   0.0,  1.5,  208,+12.8,  84.3,    0.0,  +11.7,  +13.1,  +12.0,+1100.00,22
23/04/2011,01:14:11,   0.0,  1.9,  180,+12.8,  84.2,    0.3,  +11.8,  +13.0,  +12.0,+1100.00,22
23/04/2011,01:14:29,   0.0,  2.7,  218,+12.8,  84.2,    0.4,  +11.7,  +13.1,  +12.0,+1100.00,2D
23/04/2011,01:14:55,   0.0,  1.2,  219,+12.9,  84.2,    0.4,  +11.7,  +13.1,  +11.9,+1100.00,30
23/04/2011,01:15:13,   0.0,  0.3,  195,+12.8,  84.2,    0.1,  +11.7,  +13.1,  +12.0,+1100.00,22
23/04/2011,01:15:31,   0.0,  1.3,  183,+12.8,  84.3,    0.4,  +11.7,  +13.1,  +12.0,+1100.00,24
23/04/2011,01:15:49,   0.0,  1.7,  221,+12.8,  84.3,    0.4,  +11.7,  +13.1,  +12.0,+1100.00,2A
23/04/2011,01:16:15,   0.0,  2.3,  214,+12.8,  84.3,    0.3,  +11.7,  +13.1,  +11.9,+1100.00,2A
23/04/2011,01:16:33,   0.0,  1.6,  188,+12.8,  84.3,    0.2,  +11.7,  +13.1,  +12.0,+1100.00,2D
23/04/2011,01:16:51,   0.0,  1.9,  205,+12.8,  84.3,    0.3,  +11.6,  +13.1,  +11.9,+1100.00,2E
23/04/2011,01:17:09,   0.0,  1.5,  184,+12.8,  84.3,    0.4,  +11.8,  +13.0,  +12.0,+1100.00,2E
23/04/2011,01:17:35,   0.0,  1.1,  189,+12.8,  84.3,    0.2,  +11.7,  +13.1,  +11.9,+1100.00,34
23/04/2011,01:17:53,   0.0,  1.4,  195,+12.8,  84.4,    0.0,  +11.7,  +13.1,  +12.0,+1100.00,2B
23/04/2011,01:18:11,   0.0,  1.4,  195,+12.8,  84.4,    0.4,  +11.7,  +13.1,  +11.9,+1100.00,32
23/04/2011,01:18:29,   0.0,  2.1,  209,+12.8,  84.3,    0.4,  +11.7,  +13.1,  +11.9,+1100.00,34
23/04/2011,01:18:55,   0.0,  1.8,  204,+12.8,  84.4,    0.3,  +11.7,  +13.1,  +11.9,+1100.00,34
23/04/2011,01:19:13,   0.0,  1.9,  208,+12.8,  84.4,    0.1,  +11.7,  +13.0,  +11.9,+1100.00,31
23/04/2011,01:19:31,   0.0,  1.1,  200,+12.8,  84.3,    0.1,  +11.8,  +13.0,  +11.9,+1100.00,21
23/04/2011,01:19:49,   0.0,  2.7,  178,+12.8,  84.4,    0.4,  +11.6,  +13.2,  +11.9,+1100.00,43
23/04/2011,01:20:15,   0.0,  2.2,  231,+12.8,  84.4,    0.2,  +11.7,  +13.1,  +11.9,+1100.00,23
23/04/2011,01:20:33,   0.0,  2.3,  215,+12.7,  84.4,    0.0,  +11.6,  +13.2,  +11.8,+1100.00,22
23/04/2011,01:20:51,   0.0,  2.2,  197,+12.8,  84.5,    0.3,  +11.6,  +13.1,  +11.8,+1100.00,2E
23/04/2011,01:21:09,   0.0,  2.0,  184,+12.8,  84.6,    0.4,  +11.7,  +13.1,  +11.8,+1100.00,2F
23/04/2011,01:21:35,   0.0,  1.5,  216,+12.7,  84.6,    0.2,  +11.6,  +13.1,  +11.8,+1100.00,2A
23/04/2011,01:21:53,   0.0,  2.3,  226,+12.7,  84.6,    0.2,  +11.7,  +13.1,  +11.9,+1100.00,2C
23/04/2011,01:22:11,   0.0,  2.6,  228,+12.7,  84.6,    0.4,  +11.7,  +13.1,  +11.8,+1100.00,2D